Flag for U.S.A. Weather past 2 weeks in Palm Springs, California, U.S.A.

Now
94 °F

Clear.


Feels Like: 92 °F
Forecast: 85 / 105 °F
Wind: 5 mph from Northwest

Location: Palm Springs Regional Airport

Current Time: Sep 15, 2014 at 2:53:30 AM

Latest Report: Sep 15, 2014 at 1:53 AM


Visibility: 10 mi

Pressure: 29.74 "Hg

Humidity: 26%

Dew point: 54 °F

Location of Palm SpringsLocation

Historic Weather in Palm Springs — Graph

°F

Palm Springs temperature yesterday

Maximum temperature yesterday: 109 °F (at 2:53 PM)
Minimum temperature yesterday: 83 °F (at 5:53 AM)
Average temperature yesterday: 97 °F

Past Weeks' High & Low Weather Summary

 TemperatureHumidityPressure
High110 °F (Aug 31, 2:53 PM)75% (Sep 6, 7:53 AM)29.91 "Hg (Sep 6, 7:53 AM)
Low75 °F (Sep 3, 6:53 AM)6% (Sep 2, 2:53 PM)29.55 "Hg (Sep 3, 5:53 PM)
Average93 °F29%29.74 "Hg
* Reported Aug 31 12:53 AM — Sep 15 12:53 AM, Palm Springs, Weather by CustomWeather, © 2014

Note: Actual official high and low records may vary slightly from our data, if they occured in-between our weather recording intervals... More about our weather records

Advertising

Palm Springs weather history for previous 24 hours

 ConditionsComfort  
Time TempWeatherWind HumidityBarometerVisibility
12:53 AM
Sep 15
93 °FClear.5 mph28%29.74 "Hg10 mi
11:53 PM
Sep 14
94 °FClear.9 mph29%29.74 "Hg10 mi
10:53 PM94 °FClear.No wind32%29.73 "Hg10 mi
9:53 PM96 °FClear.3 mph30%29.72 "Hg10 mi
8:53 PM98 °FClear.No wind26%29.71 "Hg10 mi
7:53 PM100 °FSunny.No wind25%29.69 "Hg10 mi
6:53 PM101 °FSunny.5 mph22%29.67 "Hg10 mi
5:53 PM104 °FScattered clouds.10 mph18%29.66 "Hg10 mi
4:53 PM106 °FSunny.10 mph17%29.65 "Hg10 mi
3:53 PM107 °FScattered clouds.7 mph14%29.66 "Hg10 mi
2:53 PM109 °FSunny.9 mph15%29.67 "Hg10 mi
1:53 PM108 °FScattered clouds.12 mph17%29.70 "Hg10 mi
12:53 PM106 °FSunny.7 mph19%29.72 "Hg10 mi
11:53 AM104 °FSunny.8 mph20%29.75 "Hg10 mi
10:53 AM103 °FSunny.5 mph18%29.77 "Hg10 mi
9:53 AM99 °FSunny.No wind20%29.78 "Hg10 mi
8:53 AM94 °FSunny.No wind23%29.78 "Hg10 mi
7:53 AM90 °FSunny.5 mph24%29.77 "Hg10 mi
6:53 AM84 °FClear.5 mph31%29.76 "Hg10 mi
5:53 AM83 °FClear.No wind34%29.74 "Hg10 mi
4:53 AM89 °FClear.8 mph22%29.72 "Hg10 mi
3:53 AM90 °FClear.12 mph21%29.71 "Hg10 mi
2:53 AM90 °FClear.8 mph22%29.71 "Hg10 mi
Weather by CustomWeather, © 2014

See weather overviewHow to use our weather pages